Time,TemperatureF,DewpointF,PressureIn,WindDirection,WindDirectionDegrees,WindSpeedMPH,WindSpeedGustMPH,Humidity,HourlyPrecipIn,Conditions,Clouds,dailyrainin,SoftwareType,DateUTC
2013-01-22 00:04:00,3.0,-2.0,-100.00,WNW,293,6.0,9.0,78,0.00,,,0.00,,2013-01-22 05:04:00,
2013-01-22 00:12:00,3.0,-2.0,-100.00,WNW,293,6.0,9.0,78,0.00,,,0.00,,2013-01-22 05:12:00,
2013-01-22 00:23:00,3.0,-3.0,-100.00,WNW,293,8.0,12.0,77,0.00,,,0.00,,2013-01-22 05:23:00,
2013-01-22 00:32:00,3.0,-3.0,-100.00,West,270,10.0,21.0,77,0.00,,,0.00,,2013-01-22 05:32:00,
2013-01-22 00:43:00,3.0,-3.0,-100.00,West,270,10.0,21.0,77,0.00,,,0.00,,2013-01-22 05:43:00,
2013-01-22 00:52:00,3.0,-3.0,-100.00,West,270,7.0,9.0,75,0.00,,,0.00,,2013-01-22 05:52:00,
2013-01-22 01:02:00,2.0,-4.0,-100.00,West,270,8.0,12.0,75,0.00,,,0.00,,2013-01-22 06:02:00,
2013-01-22 01:12:00,2.0,-4.0,-100.00,West,270,8.0,12.0,75,0.00,,,0.00,,2013-01-22 06:12:00,
2013-01-22 01:22:00,2.0,-4.0,-100.00,WNW,293,6.0,13.0,74,0.00,,,0.00,,2013-01-22 06:22:00,
2013-01-22 01:33:00,2.0,-4.0,-100.00,West,270,6.0,10.0,74,0.00,,,0.00,,2013-01-22 06:33:00,
2013-01-22 01:43:00,2.0,-4.0,-100.00,West,270,6.0,10.0,74,0.00,,,0.00,,2013-01-22 06:43:00,
2013-01-22 01:53:00,2.0,-4.0,-100.00,WNW,293,7.0,8.0,75,0.00,,,0.00,,2013-01-22 06:53:00,
2013-01-22 02:02:00,1.0,-5.0,-100.00,West,270,9.0,10.0,75,0.00,,,0.00,,2013-01-22 07:02:00,
2013-01-22 02:12:00,1.0,-5.0,-100.00,West,270,9.0,10.0,75,0.00,,,0.00,,2013-01-22 07:12:00,
2013-01-22 02:22:00,1.0,-5.0,-100.00,West,270,10.0,13.0,76,0.00,,,0.00,,2013-01-22 07:22:00,
2013-01-22 02:32:00,1.0,-5.0,-100.00,West,270,8.0,13.0,76,0.00,,,0.00,,2013-01-22 07:32:00,
2013-01-22 02:42:00,1.0,-5.0,-100.00,West,270,8.0,13.0,76,0.00,,,0.00,,2013-01-22 07:42:00,
2013-01-22 02:53:00,1.0,-4.0,-100.00,WNW,293,8.0,13.0,77,0.00,,,0.00,,2013-01-22 07:53:00,
2013-01-22 03:02:00,1.0,-5.0,-100.00,West,270,7.0,12.0,76,0.00,,,0.00,,2013-01-22 08:02:00,
2013-01-22 03:12:00,1.0,-5.0,-100.00,West,270,7.0,12.0,76,0.00,,,0.00,,2013-01-22 08:12:00,
2013-01-22 03:22:00,0.0,-6.0,-100.00,WNW,293,9.0,10.0,75,0.00,,,0.00,,2013-01-22 08:22:00,
2013-01-22 03:32:00,0.0,-6.0,-100.00,WNW,293,9.0,14.0,75,0.00,,,0.00,,2013-01-22 08:32:00,
2013-01-22 03:42:00,0.0,-6.0,-100.00,WNW,293,9.0,14.0,75,0.00,,,0.00,,2013-01-22 08:42:00,
2013-01-22 03:52:00,0.0,-6.0,-100.00,SW,225,5.0,10.0,75,0.00,,,0.00,,2013-01-22 08:52:00,
2013-01-22 04:02:00,0.0,-6.0,-100.00,WSW,248,3.0,6.0,76,0.00,,,0.00,,2013-01-22 09:02:00,
2013-01-22 04:12:00,0.0,-6.0,-100.00,WSW,248,3.0,6.0,76,0.00,,,0.00,,2013-01-22 09:12:00,
2013-01-22 04:22:00,0.0,-6.0,-100.00,WNW,293,7.0,10.0,75,0.00,,,0.00,,2013-01-22 09:22:00,
2013-01-22 04:32:00,0.0,-6.0,-100.00,West,270,7.0,13.0,76,0.00,,,0.00,,2013-01-22 09:32:00,
2013-01-22 04:42:00,0.0,-6.0,-100.00,West,270,7.0,13.0,76,0.00,,,0.00,,2013-01-22 09:42:00,
2013-01-22 04:52:00,0.0,-6.0,-100.00,West,270,7.0,13.0,76,0.00,,,0.00,,2013-01-22 09:52:00,
2013-01-22 05:02:00,0.0,-6.0,-100.00,WNW,293,8.0,9.0,76,0.00,,,0.00,,2013-01-22 10:02:00,
2013-01-22 05:12:00,0.0,-6.0,-100.00,WNW,293,8.0,9.0,76,0.00,,,0.00,,2013-01-22 10:12:00,
2013-01-22 05:22:00,0.0,-6.0,-100.00,West,270,8.0,15.0,76,0.00,,,0.00,,2013-01-22 10:22:00,
2013-01-22 05:32:00,0.0,-5.0,-100.00,West,270,7.0,14.0,78,0.00,,,0.00,,2013-01-22 10:32:00,
2013-01-22 05:42:00,0.0,-5.0,-100.00,West,270,7.0,14.0,78,0.00,,,0.00,,2013-01-22 10:42:00,
2013-01-22 05:52:00,0.0,-5.0,-100.00,WNW,293,6.0,9.0,79,0.00,,,0.00,,2013-01-22 10:52:00,
2013-01-22 06:02:00,0.0,-5.0,-100.00,West,270,5.0,8.0,80,0.00,,,0.00,,2013-01-22 11:02:00,
2013-01-22 06:12:00,0.0,-5.0,-100.00,West,270,5.0,8.0,80,0.00,,,0.00,,2013-01-22 11:12:00,
2013-01-22 06:22:00,0.0,-5.0,-100.00,West,270,5.0,9.0,80,0.00,,,0.00,,2013-01-22 11:22:00,
2013-01-22 06:33:00,0.0,-4.0,-100.00,West,270,8.0,15.0,81,0.00,,,0.00,,2013-01-22 11:33:00,
2013-01-22 06:43:00,0.0,-4.0,-100.00,West,270,8.0,15.0,81,0.00,,,0.00,,2013-01-22 11:43:00,
2013-01-22 06:53:00,0.0,-4.0,-100.00,West,270,9.0,13.0,82,0.00,,,0.00,,2013-01-22 11:53:00,
2013-01-22 07:04:00,0.0,-4.0,-100.00,West,270,3.0,8.0,83,0.00,,,0.00,,2013-01-22 12:04:00,
2013-01-22 07:13:00,0.0,-4.0,-100.00,West,270,3.0,8.0,83,0.00,,,0.00,,2013-01-22 12:13:00,
2013-01-22 07:23:00,0.0,-4.0,-100.00,WNW,293,6.0,9.0,83,0.00,,,0.00,,2013-01-22 12:23:00,
2013-01-22 07:33:00,0.0,-4.0,-100.00,WNW,293,6.0,9.0,83,0.00,,,0.00,,2013-01-22 12:33:00,
2013-01-22 07:43:00,0.0,-4.0,-100.00,West,270,7.0,9.0,84,0.00,,,0.00,,2013-01-22 12:43:00,
2013-01-22 07:52:00,0.0,-3.0,-100.00,WSW,248,8.0,10.0,85,0.00,,,0.00,,2013-01-22 12:52:00,
2013-01-22 08:04:00,0.0,-3.0,-100.00,West,270,7.0,12.0,85,0.00,,,0.00,,2013-01-22 13:04:00,
2013-01-22 08:13:00,0.0,-3.0,-100.00,West,270,7.0,12.0,85,0.00,,,0.00,,2013-01-22 13:13:00,
2013-01-22 08:23:00,0.0,-3.0,-100.00,WSW,248,6.0,12.0,86,0.00,,,0.00,,2013-01-22 13:23:00,
2013-01-22 08:33:00,0.0,-3.0,-100.00,West,270,8.0,10.0,86,0.00,,,0.00,,2013-01-22 13:33:00,
2013-01-22 08:43:00,0.0,-3.0,-100.00,West,270,8.0,10.0,86,0.00,,,0.00,,2013-01-22 13:43:00,
2013-01-22 08:53:00,0.0,-3.0,-100.00,West,270,10.0,15.0,86,0.00,,,0.00,,2013-01-22 13:53:00,
2013-01-22 09:03:00,0.0,-3.0,-100.00,West,270,9.0,16.0,86,0.00,,,0.00,,2013-01-22 14:03:00,
2013-01-22 09:13:00,0.0,-3.0,-100.00,West,270,9.0,16.0,86,0.00,,,0.00,,2013-01-22 14:13:00,
2013-01-22 09:23:00,0.0,-3.0,-100.00,WSW,248,6.0,7.0,85,0.00,,,0.00,,2013-01-22 14:23:00,
2013-01-22 09:34:00,1.0,-2.0,-100.00,SSW,203,3.0,7.0,85,0.00,,,0.00,,2013-01-22 14:34:00,
2013-01-22 09:44:00,1.0,-2.0,-100.00,SSW,203,3.0,7.0,85,0.00,,,0.00,,2013-01-22 14:44:00,
2013-01-22 09:54:00,1.0,-3.0,-100.00,West,270,9.0,15.0,84,0.00,,,0.00,,2013-01-22 14:54:00,
2013-01-22 10:03:00,1.0,-3.0,-100.00,West,270,8.0,9.0,83,0.00,,,0.00,,2013-01-22 15:03:00,
2013-01-22 10:13:00,1.0,-3.0,-100.00,West,270,8.0,9.0,83,0.00,,,0.00,,2013-01-22 15:13:00,
2013-01-22 10:23:00,2.0,-2.0,-100.00,West,270,7.0,16.0,82,0.00,,,0.00,,2013-01-22 15:23:00,
2013-01-22 10:34:00,2.0,-2.0,-100.00,WNW,293,6.0,10.0,81,0.00,,,0.00,,2013-01-22 15:34:00,
2013-01-22 10:43:00,2.0,-2.0,-100.00,WNW,293,6.0,10.0,81,0.00,,,0.00,,2013-01-22 15:43:00,
2013-01-22 10:54:00,3.0,-2.0,-100.00,West,270,12.0,16.0,79,0.00,,,0.00,,2013-01-22 15:54:00,
2013-01-22 11:03:00,3.0,-2.0,-100.00,WNW,293,10.0,14.0,78,0.00,,,0.00,,2013-01-22 16:03:00,
2013-01-22 11:13:00,3.0,-2.0,-100.00,WNW,293,10.0,14.0,78,0.00,,,0.00,,2013-01-22 16:13:00,
2013-01-22 11:23:00,4.0,-2.0,-100.00,West,270,10.0,14.0,75,0.00,,,0.00,,2013-01-22 16:23:00,
2013-01-22 11:33:00,3.0,-3.0,-100.00,West,270,5.0,9.0,74,0.00,,,0.00,,2013-01-22 16:33:00,
2013-01-22 11:43:00,3.0,-3.0,-100.00,West,270,5.0,9.0,74,0.00,,,0.00,,2013-01-22 16:43:00,
2013-01-22 11:54:00,4.0,-2.0,-100.00,West,270,8.0,9.0,74,0.00,,,0.00,,2013-01-22 16:54:00,
2013-01-22 12:03:00,4.0,-3.0,-100.00,West,270,12.0,14.0,72,0.00,,,0.00,,2013-01-22 17:03:00,
2013-01-22 12:13:00,4.0,-3.0,-100.00,West,270,12.0,14.0,72,0.00,,,0.00,,2013-01-22 17:13:00,
2013-01-22 12:23:00,4.0,-2.0,-100.00,WNW,293,7.0,8.0,74,0.00,,,0.00,,2013-01-22 17:23:00,
2013-01-22 12:34:00,5.0,-2.0,-100.00,West,270,7.0,12.0,73,0.00,,,0.00,,2013-01-22 17:34:00,
2013-01-22 12:43:00,5.0,-2.0,-100.00,West,270,7.0,12.0,73,0.00,,,0.00,,2013-01-22 17:43:00,
2013-01-22 12:54:00,6.0,-1.0,-100.00,SW,225,10.0,15.0,71,0.00,,,0.00,,2013-01-22 17:54:00,
2013-01-22 13:04:00,6.0,-2.0,-100.00,WSW,248,7.0,13.0,70,0.00,,,0.00,,2013-01-22 18:04:00,
2013-01-22 13:13:00,6.0,-2.0,-100.00,WSW,248,7.0,13.0,70,0.00,,,0.00,,2013-01-22 18:13:00,
2013-01-22 13:23:00,6.0,-2.0,-100.00,NW,315,3.0,8.0,70,0.00,,,0.00,,2013-01-22 18:23:00,
2013-01-22 13:33:00,7.0,0.0,-100.00,NNW,338,7.0,7.0,71,0.00,,,0.00,,2013-01-22 18:33:00,
2013-01-22 13:43:00,7.0,0.0,-100.00,NNW,338,7.0,7.0,71,0.00,,,0.00,,2013-01-22 18:43:00,
2013-01-22 13:54:00,6.0,-1.0,-100.00,WNW,293,9.0,12.0,72,0.00,,,0.00,,2013-01-22 18:54:00,
2013-01-22 14:03:00,6.0,-2.0,-100.00,West,270,13.0,17.0,70,0.00,,,0.00,,2013-01-22 19:03:00,
2013-01-22 14:13:00,6.0,-2.0,-100.00,West,270,13.0,17.0,70,0.00,,,0.00,,2013-01-22 19:13:00,
2013-01-22 14:23:00,6.0,-2.0,-100.00,West,270,8.0,13.0,70,0.00,,,0.00,,2013-01-22 19:23:00,
2013-01-22 14:33:00,7.0,-2.0,-100.00,WSW,248,10.0,13.0,67,0.00,,,0.00,,2013-01-22 19:33:00,
2013-01-22 14:43:00,7.0,-2.0,-100.00,WSW,248,10.0,13.0,67,0.00,,,0.00,,2013-01-22 19:43:00,
2013-01-22 14:54:00,7.0,-2.0,-100.00,WSW,248,10.0,15.0,66,0.00,,,0.00,,2013-01-22 19:54:00,
2013-01-22 15:03:00,7.0,0.0,-100.00,WSW,248,7.0,17.0,71,0.00,,,0.00,,2013-01-22 20:03:00,
2013-01-22 15:13:00,7.0,0.0,-100.00,WSW,248,7.0,17.0,71,0.00,,,0.00,,2013-01-22 20:13:00,
2013-01-22 15:23:00,6.0,0.0,-100.00,West,270,6.0,8.0,74,0.00,,,0.00,,2013-01-22 20:23:00,
2013-01-22 15:33:00,7.0,1.0,-100.00,West,270,8.0,9.0,76,0.00,,,0.00,,2013-01-22 20:33:00,
2013-01-22 15:43:00,7.0,1.0,-100.00,West,270,8.0,9.0,76,0.00,,,0.00,,2013-01-22 20:43:00,
2013-01-22 15:53:00,6.0,1.0,-100.00,WNW,293,8.0,12.0,78,0.00,,,0.00,,2013-01-22 20:53:00,
2013-01-22 16:03:00,6.0,2.0,-100.00,WNW,293,5.0,7.0,84,0.00,,,0.00,,2013-01-22 21:03:00,
2013-01-22 16:13:00,6.0,2.0,-100.00,WNW,293,5.0,7.0,84,0.00,,,0.00,,2013-01-22 21:13:00,
2013-01-22 16:23:00,6.0,2.0,-100.00,WNW,293,1.0,7.0,85,0.00,,,0.00,,2013-01-22 21:23:00,
2013-01-22 16:33:00,7.0,3.0,-100.00,WNW,293,3.0,6.0,84,0.00,,,0.00,,2013-01-22 21:33:00,
2013-01-22 16:43:00,7.0,3.0,-100.00,WNW,293,3.0,6.0,84,0.00,,,0.00,,2013-01-22 21:43:00,
2013-01-22 16:53:00,8.0,4.0,-100.00,WSW,248,6.0,6.0,82,0.00,,,0.00,,2013-01-22 21:53:00,
2013-01-22 17:03:00,8.0,3.0,-100.00,West,270,5.0,6.0,81,0.00,,,0.00,,2013-01-22 22:03:00,
2013-01-22 17:13:00,8.0,3.0,-100.00,West,270,5.0,6.0,81,0.00,,,0.00,,2013-01-22 22:13:00,
2013-01-22 17:23:00,8.0,4.0,-100.00,West,270,6.0,7.0,84,0.00,,,0.00,,2013-01-22 22:23:00,
2013-01-22 17:32:00,8.0,4.0,-100.00,West,270,6.0,7.0,84,0.00,,,0.00,,2013-01-22 22:32:00,
2013-01-22 17:43:00,7.0,2.0,-100.00,West,270,10.0,17.0,81,0.00,,,0.00,,2013-01-22 22:43:00,
2013-01-22 17:53:00,7.0,3.0,-100.00,WNW,293,6.0,6.0,82,0.00,,,0.00,,2013-01-22 22:53:00,
2013-01-22 18:03:00,7.0,3.0,-100.00,WSW,248,6.0,6.0,85,0.00,,,0.00,,2013-01-22 23:03:00,
2013-01-22 18:12:00,7.0,3.0,-100.00,WSW,248,6.0,6.0,85,0.00,,,0.00,,2013-01-22 23:12:00,
2013-01-22 18:24:00,7.0,3.0,-100.00,West,270,5.0,7.0,84,0.00,,,0.00,,2013-01-22 23:24:00,
2013-01-22 18:33:00,6.0,2.0,-100.00,West,270,1.0,0.0,85,0.00,,,0.00,,2013-01-22 23:33:00,
2013-01-22 18:43:00,6.0,2.0,-100.00,West,270,1.0,0.0,85,0.00,,,0.00,,2013-01-22 23:43:00,
2013-01-22 18:53:00,6.0,4.0,-100.00,WNW,293,6.0,9.0,90,0.00,,,0.00,,2013-01-22 23:53:00,
2013-01-22 19:03:00,6.0,4.0,-100.00,WNW,293,6.0,9.0,91,0.00,,,0.00,,2013-01-23 00:03:00,
2013-01-22 19:12:00,6.0,4.0,-100.00,WNW,293,6.0,9.0,91,0.00,,,0.00,,2013-01-23 00:12:00,
2013-01-22 19:23:00,6.0,4.0,-100.00,West,270,5.0,8.0,91,0.00,,,0.00,,2013-01-23 00:23:00,
2013-01-22 19:33:00,6.0,4.0,-100.00,West,270,5.0,6.0,90,0.00,,,0.00,,2013-01-23 00:33:00,
2013-01-22 19:43:00,6.0,4.0,-100.00,West,270,5.0,6.0,90,0.00,,,0.00,,2013-01-23 00:43:00,
2013-01-22 19:52:00,6.0,3.0,-100.00,West,270,6.0,10.0,86,0.00,,,0.00,,2013-01-23 00:52:00,
2013-01-22 20:03:00,6.0,2.0,-100.00,SSW,203,7.0,8.0,83,0.00,,,0.00,,2013-01-23 01:03:00,
2013-01-22 20:13:00,6.0,2.0,-100.00,SSW,203,7.0,8.0,83,0.00,,,0.00,,2013-01-23 01:13:00,
2013-01-22 20:23:00,7.0,2.0,-100.00,West,270,3.0,7.0,81,0.00,,,0.00,,2013-01-23 01:23:00,
2013-01-22 20:33:00,6.0,1.0,-100.00,WSW,248,0.0,6.0,80,0.00,,,0.00,,2013-01-23 01:33:00,
2013-01-22 20:43:00,6.0,1.0,-100.00,WSW,248,0.0,6.0,80,0.00,,,0.00,,2013-01-23 01:43:00,
2013-01-22 20:53:00,6.0,1.0,-100.00,West,270,0.0,0.0,80,0.00,,,0.00,,2013-01-23 01:53:00,
2013-01-22 21:03:00,6.0,1.0,-100.00,WNW,293,7.0,8.0,81,0.00,,,0.00,,2013-01-23 02:03:00,
2013-01-22 21:13:00,6.0,1.0,-100.00,WNW,293,7.0,8.0,81,0.00,,,0.00,,2013-01-23 02:13:00,
2013-01-22 21:23:00,6.0,2.0,-100.00,West,270,2.0,7.0,83,0.00,,,0.00,,2013-01-23 02:23:00,
2013-01-22 21:33:00,6.0,2.0,-100.00,West,270,7.0,9.0,84,0.00,,,0.00,,2013-01-23 02:33:00,
2013-01-22 21:43:00,6.0,2.0,-100.00,West,270,7.0,9.0,84,0.00,,,0.00,,2013-01-23 02:43:00,
2013-01-22 21:53:00,6.0,2.0,-100.00,WNW,293,6.0,9.0,84,0.00,,,0.00,,2013-01-23 02:53:00,
2013-01-22 22:03:00,6.0,2.0,-100.00,WSW,248,0.0,0.0,83,0.00,,,0.00,,2013-01-23 03:03:00,
2013-01-22 22:13:00,6.0,2.0,-100.00,WSW,248,0.0,0.0,83,0.00,,,0.00,,2013-01-23 03:13:00,
2013-01-22 22:23:00,6.0,2.0,-100.00,WNW,293,6.0,10.0,84,0.00,,,0.00,,2013-01-23 03:23:00,
2013-01-22 22:33:00,5.0,2.0,-100.00,SW,225,2.0,5.0,85,0.00,,,0.00,,2013-01-23 03:33:00,
2013-01-22 22:43:00,5.0,2.0,-100.00,SW,225,2.0,5.0,85,0.00,,,0.00,,2013-01-23 03:43:00,
2013-01-22 22:53:00,5.0,2.0,-100.00,NW,315,6.0,7.0,85,0.00,,,0.00,,2013-01-23 03:53:00,
2013-01-22 23:03:00,4.0,1.0,-100.00,West,270,2.0,3.0,85,0.00,,,0.00,,2013-01-23 04:03:00,
2013-01-22 23:12:00,4.0,1.0,-100.00,West,270,2.0,3.0,85,0.00,,,0.00,,2013-01-23 04:12:00,
2013-01-22 23:23:00,4.0,1.0,-100.00,West,270,2.0,5.0,86,0.00,,,0.00,,2013-01-23 04:23:00,
2013-01-22 23:33:00,4.0,1.0,-100.00,West,270,3.0,7.0,86,0.00,,,0.00,,2013-01-23 04:33:00,
2013-01-22 23:43:00,4.0,1.0,-100.00,West,270,3.0,7.0,86,0.00,,,0.00,,2013-01-23 04:43:00,
2013-01-22 23:53:00,4.0,1.0,-100.00,West,270,5.0,8.0,85,0.00,,,0.00,,2013-01-23 04:53:00,